SCP
0 0 0 0 0 0 0 2 1 5 7 9 6 5 3 4 3 3 3 4 5 3 4 3 1 2 1 2 3 4 6 3 1 1 1 1 1 1 1 2 2 1 0
0 0 0 0 0 0 0 1 2 3 9 7 6 5 4 2 3 2 3 6 7 4 2 2 3 -0 1 2 5 4 3 2 2 1 1 1 0 0 1 0 1 0 0
0 0 0 0 0 0 0 1 2 2 4 5 5 6 5 7 4 4 7 7 4 2 3 2 1 1 2 5 4 4 3 3 2 1 1 1 1 1 0 0 -0 1 1
0 0 0 0 0 0 0 0 0 1 1 4 4 7 5 3 3 2 5 6 5 6 5 2 2 2 5 4 5 5 4 3 2 1 1 1 2 1 0 0 1 0 0
0 0 0 0 0 1 1 1 2 3 3 6 5 7 7 4 4 3 7 10 11 6 4 4 3 4 4 5 5 5 5 3 3 2 1 1 1 1 2 1 0 1 1
0 0 0 0 0 0 1 2 2 3 3 3 3 3 7 7 5 5 5 7 7 5 4 4 6 5 5 4 4 4 4 4 3 2 2 1 0 0 0 0 0 0 0
0 0 0 0 0 0 0 0 1 1 1 1 1 2 2 6 5 4 4 4 5 5 4 4 6 4 4 3 3 4 3 4 3 3 2 1 0 0 0 0 0 0 0
0 0 0 0 0 0 0 0 0 0 0 0 0 1 1 1 1 3 3 2 1 1 4 1 2 3 3 3 2 2 2 2 2 1 1 1 0 0 0 0 0 0 0
0 0 0 0 0 0 0 0 0 0 0 0 0 0 0 0 0 0 1 1 1 1 1 2 3 2 2 2 2 2 2 2 2 1 3 2 1 0 0 0 0 0 0
0 0 0 0 0 0 0 0 0 0 0 0 0 0 0 0 0 0 0 0 0 0 0 0 0 1 2 2 2 2 2 2 1 1 1 1 1 1 0 0 0 0 0
0 0 0 0 0 0 0 0 0 0 0 0 0 0 0 0 0 0 0 0 0 0 0 0 0 0 1 1 2 2 2 1 2 2 1 1 2 1 1 0 0 0 0
0 0 0 0 0 0 0 0 0 0 0 0 0 0 0 0 0 0 0 0 0 0 0 0 0 0 0 0 1 1 1 1 1 1 1 1 1 2 1 1 0 0 0
0 0 0 0 0 0 0 0 0 0 0 0 0 0 0 0 0 0 0 0 0 0 0 0 0 0 0 0 0 0 0 0 1 1 1 1 1 1 1 1 1 1 1
0 0 0 0 0 0 0 0 0 0 0 0 0 0 0 0 0 0 0 0 0 0 0 0 0 0 0 0 0 0 0 0 0 0 0 1 1 1 1 1 1 1 1
0 0 0 0 0 0 0 0 0 0 0 0 0 0 0 0 0 0 0 0 0 0 0 0 0 0 0 0 0 0 0 0 0 0 0 0 0 0 0 0 0 0 0
0 0 0 0 0 0 0 0 0 0 0 0 0 0 0 0 0 0 0 0 0 0 0 0 0 0 0 0 0 0 0 0 0 0 0 0 0 0 0 0 0 0 0
0 0 0 0 0 0 0 0 0 0 0 0 0 0 0 0 0 0 0 0 0 0 0 0 0 0 0 0 0 0 0 0 0 0 0 0 0 0 0 0 0 0 0
0 0 0 0 0 0 0 0 0 0 0 0 0 0 0 0 0 0 0 0 0 0 0 0 0 0 0 0 0 0 0 0 0 0 0 0 0 0 0 0 0 0 0
0 0 0 0 0 0 0 0 0 0 0 0 0 0 0 0 0 0 0 0 0 0 0 0 0 0 0 0 0 0 0 0 0 0 0 0 0 0 0 0 0 0 0
0 0 0 0 0 0 0 0 0 0 0 0 0 0 0 0 0 0 0 0 0 0 0 0 0 0 0 0 0 0 0 0 0 0 0 0 0 0 0 0 0 0 0
0 0 0 0 0 0 0 0 0 0 0 0 0 0 0 0 0 0 0 0 0 0 0 0 0 0 0 0 0 0 0 0 0 0 0 0 0 0 0 0 0 0 0
0 0 0 0 0 0 0 0 0 0 0 0 0 0 0 0 0 0 0 0 0 0 0 0 0 0 0 0 0 0 0 0 0 0 0 0 0 0 0 0 0 0 0
0 0 0 0 0 0 0 0 0 0 0 0 0 0 0 0 0 0 0 0 0 0 0 0 0 0 0 0 0 0 0 0 0 0 0 0 0 0 0 0 0 0 0
0 0 0 0 0 0 0 0 0 0 0 0 0 0 0 0 0 0 0 0 0 0 0 0 0 0 0 0 0 0 0 0 0 0 0 0 0 0 0 0 0 0 0
0 0 0 0 0 0 0 0 0 0 0 -0 -0 -0 0 0 0 0 0 0 0 0 0 0 0 0 0 0 0 0 0 0 0 0 0 0 0 0 0 0 0 0 0
0 0 0 0 0 0 0 -0 0 0 -0 -0 0 0 0 0 0 0 0 0 0 0 0 0 0 0 0 0 0 0 0 0 0 0 0 -0 0 0 0 0 -0 -0 0
Wind_Speed_500mb
45 11 6 16 22 20 16 19 37 31 36 33 28 34 32 36 34 40 41 51 57 53 40 46 41 41 35 32 38 33 31 38 35 29 34 37 34 35 46 54 56 37 38
46 17 16 22 25 25 33 35 36 44 41 44 46 37 35 26 41 37 45 49 59 62 59 54 53 53 48 34 43 47 46 47 29 28 36 41 38 28 23 25 24 24 36
31 26 10 13 15 20 19 18 27 41 45 43 32 40 48 36 37 42 46 52 54 40 51 46 40 38 36 32 31 36 37 39 41 41 29 15 25 33 42 50 57 46 43
13 13 10 3 5 7 10 13 22 17 25 38 47 30 41 42 38 36 51 52 50 46 49 44 42 49 41 48 48 37 32 36 37 21 23 30 39 41 47 54 53 56 44
23 13 6 1 3 6 9 7 1 5 14 15 32 37 26 34 32 32 38 38 45 42 43 48 43 48 54 39 37 43 43 42 30 30 30 36 38 37 36 42 52 39 44
23 14 12 8 12 15 16 18 15 7 1 13 13 25 30 19 34 34 19 32 40 40 37 35 44 43 46 46 40 51 48 45 43 41 41 42 40 44 41 44 44 53 52
20 10 14 21 20 20 20 21 18 17 14 12 11 5 13 18 21 24 21 18 19 26 33 44 34 38 41 41 39 39 41 40 42 43 44 42 38 40 43 43 46 49 59
29 25 15 21 19 19 21 18 19 19 16 18 7 5 12 9 7 9 4 6 9 8 15 26 32 37 34 33 38 42 45 45 47 46 47 48 46 45 48 49 46 50 49
29 29 25 22 19 12 10 8 9 8 13 7 8 2 2 6 9 9 13 19 14 18 10 13 21 29 38 45 44 49 51 49 49 50 50 55 58 56 53 52 50 49 50
21 17 10 13 6 6 7 5 6 7 6 5 8 11 14 20 25 26 28 34 40 44 49 50 46 38 35 45 52 56 59 61 61 63 66 67 66 63 55 52 57 60 57
17 18 17 13 7 10 4 3 4 6 11 12 15 17 25 26 26 31 34 34 38 42 45 48 50 53 52 54 63 68 71 71 70 66 68 71 70 69 65 64 63 65 65
3 9 1 5 2 2 9 13 8 14 14 16 20 23 27 28 32 38 41 42 45 48 51 52 53 54 56 55 58 63 70 77 83 86 87 85 80 81 79 83 85 82 77
17 16 8 14 16 12 12 15 14 18 21 23 27 31 34 38 42 45 48 51 55 57 58 59 60 62 63 65 64 65 69 71 72 77 82 87 85 84 82 86 81 73 71
16 13 15 7 13 14 16 18 20 25 27 31 37 41 44 48 53 57 56 54 53 55 56 58 61 61 62 62 63 65 68 71 74 74 74 72 76 88 91 89 86 90 88
19 10 11 13 11 14 17 25 25 27 33 39 43 46 51 52 53 56 59 62 63 65 65 67 67 67 67 66 65 67 73 77 80 80 80 77 70 73 72 75 87 90 87
10 6 13 18 20 19 18 23 28 32 36 45 50 51 56 58 57 59 61 62 62 59 58 60 63 67 68 66 73 80 85 87 88 92 97 98 96 91 86 81 76 78 86
11 7 10 12 15 24 27 28 31 40 45 49 52 55 56 58 58 58 57 57 58 61 66 70 68 67 70 76 83 88 92 96 99 102 104 105 102 98 92 97 91 76 72
21 16 15 18 24 28 32 37 40 43 48 53 55 56 57 58 58 61 63 63 65 69 77 81 84 85 93 102 101 95 99 103 104 104 105 104 107 106 106 104 104 97 94
17 19 25 27 31 33 39 44 42 46 49 53 57 57 56 59 58 58 66 75 82 91 98 100 98 99 102 103 99 82 73 71 76 76 77 76 80 87 89 92 90 98 114
22 28 32 35 38 43 45 41 41 46 49 53 54 53 53 58 69 82 90 87 78 85 91 98 94 87 82 74 67 63 61 74 81 80 80 77 79 72 66 67 73 91 93
28 33 39 42 39 33 38 40 43 46 47 49 52 57 68 81 76 71 75 84 89 77 68 71 70 69 66 62 57 54 58 67 73 74 71 67 66 63 55 52 66 81 85
33 37 42 42 43 45 44 42 41 46 51 55 64 75 80 70 75 84 75 63 64 65 67 68 67 64 61 56 54 50 47 46 51 58 61 62 61 62 61 64 64 50 52
43 42 45 48 45 44 42 41 41 53 63 73 77 74 76 84 66 61 63 61 59 62 66 64 66 63 58 57 56 52 49 53 58 55 55 53 59 56 59 57 51 45 52
43 42 41 42 42 42 42 44 52 66 78 79 81 78 74 67 63 58 54 57 59 62 64 62 61 59 56 59 60 57 54 48 43 48 52 57 55 47 48 44 47 42 36
37 38 39 42 44 47 48 51 59 67 74 75 74 68 65 62 58 53 53 54 56 54 53 54 56 57 58 61 57 58 59 48 51 54 56 50 41 38 37 38 28 23 26
40 41 41 42 45 47 55 57 53 64 71 72 66 63 59 55 53 54 58 55 52 44 46 46 48 50 58 61 53 51 51 50 55 62 61 48 35 33 32 28 35 37 43
Wind_Direction_500mb
296 301 281 302 285 264 214 224 238 220 225 214 225 251 233 236 243 242 240 245 246 238 233 234 215 232 227 222 232 239 245 259 274 274 281 291 293 289 290 293 291 286 294
278 339 321 328 322 298 280 263 249 244 228 234 233 226 254 250 243 247 241 244 242 278 250 232 255 226 229 230 233 248 254 254 256 270 274 277 293 283 289 306 342 330 269
209 286 343 306 300 300 286 278 270 257 238 227 231 235 233 225 230 237 240 249 252 228 234 239 223 239 229 230 241 258 256 251 248 237 263 278 286 292 277 285 292 301 286
195 207 248 276 329 295 287 299 266 278 246 232 224 229 245 247 243 246 242 235 253 246 247 248 236 231 227 235 238 241 224 242 257 255 251 266 276 282 292 294 298 310 316
184 156 97 59 41 48 43 355 192 223 206 227 234 235 253 246 249 269 254 236 230 235 233 239 242 243 231 226 229 229 234 242 250 245 251 258 265 273 287 295 302 300 305
126 141 132 99 78 67 58 54 50 32 220 232 263 247 240 240 236 252 247 233 235 244 236 238 238 232 235 232 235 234 232 238 241 247 249 252 261 267 280 288 289 293 293
131 110 119 98 86 78 66 64 67 73 89 113 120 187 247 272 276 277 271 253 265 248 251 229 230 229 236 234 235 240 250 256 258 263 263 264 257 260 270 278 284 289 290
164 155 129 130 115 88 74 77 83 73 80 73 86 157 140 127 158 209 262 177 215 64 276 262 239 244 236 252 260 260 258 263 265 266 267 267 266 267 267 269 279 284 288
142 156 153 150 117 92 92 92 82 93 76 62 60 32 288 290 302 287 290 267 271 262 264 221 236 263 268 264 258 262 267 265 264 265 263 264 271 274 273 262 267 275 287
173 182 150 141 89 168 189 111 58 32 349 335 304 295 297 283 279 278 265 264 264 267 270 273 267 254 249 258 260 258 258 258 259 259 260 261 265 269 266 260 259 267 275
186 184 193 171 204 200 144 321 343 318 314 326 321 316 308 302 291 284 287 286 282 280 278 276 274 274 274 266 258 259 259 257 256 261 262 260 260 261 260 263 265 265 268
124 301 90 115 165 270 277 307 322 316 295 310 310 307 303 300 293 292 290 287 281 278 277 276 274 274 272 267 264 267 266 263 263 260 260 261 259 258 259 262 263 262 262
186 231 225 249 224 240 260 282 302 305 303 303 301 294 294 291 291 289 287 286 287 286 284 281 275 271 267 266 267 268 268 268 269 270 268 266 264 262 260 255 259 262 265
198 219 222 266 249 244 268 279 290 298 299 300 300 297 297 295 295 297 299 297 293 289 286 281 279 276 273 271 272 271 270 269 269 267 266 268 267 266 267 263 259 258 259
300 262 199 228 270 286 287 285 288 295 302 299 296 296 298 299 297 294 292 291 291 290 289 288 284 279 279 279 280 276 271 269 267 264 262 260 261 260 261 266 262 260 259
261 238 243 254 266 277 292 301 301 300 299 298 299 298 298 298 299 296 294 294 293 290 286 283 282 280 280 279 272 269 270 271 273 274 270 268 264 260 258 258 259 266 262
246 268 311 314 330 318 307 300 304 302 299 297 297 299 299 299 298 297 296 295 293 290 287 286 285 278 270 265 264 264 267 271 274 276 275 274 272 270 266 263 259 261 260
24 359 334 325 311 306 304 303 305 298 298 298 299 300 300 299 299 299 298 296 288 283 281 280 276 274 272 274 278 279 279 277 276 275 274 275 273 271 271 267 259 258 255
339 321 314 306 309 305 302 301 298 300 301 301 300 300 300 300 300 293 285 281 281 281 282 283 284 282 285 284 284 282 280 280 282 284 280 279 278 275 275 271 267 265 257
322 309 301 299 295 302 298 300 303 304 305 302 299 296 290 288 286 286 290 293 292 289 291 290 289 289 290 290 289 285 278 278 282 285 285 285 284 281 274 269 269 262 261
307 302 295 299 304 310 316 313 310 310 303 294 288 287 289 295 298 292 291 295 295 295 299 302 303 301 299 298 295 290 280 277 281 283 284 286 285 285 280 273 261 265 266
312 313 314 320 323 322 320 319 316 297 293 293 293 294 300 299 299 302 301 303 308 307 307 307 306 305 307 304 301 295 286 283 279 279 282 288 292 284 275 276 266 268 266
328 325 321 318 319 326 318 314 311 299 293 296 301 304 302 307 306 309 311 309 310 310 312 310 308 307 308 306 304 301 291 284 279 274 278 278 287 278 274 270 253 274 261
326 324 323 320 320 315 325 317 309 301 302 305 305 309 311 317 317 313 312 313 313 312 311 309 308 308 308 305 307 303 293 288 274 273 266 279 286 278 272 260 251 279 233
331 330 330 325 322 321 317 311 311 307 305 308 312 317 316 316 317 317 318 317 316 315 312 309 305 301 304 308 301 292 283 275 270 270 275 279 283 284 270 245 241 238 221
334 330 327 323 320 317 311 315 309 302 309 315 319 319 320 322 322 323 322 322 325 327 323 317 314 310 314 313 301 292 285 276 267 268 269 270 274 273 264 250 238 240 247
Wind_Speed_850mb
45 11 6 16 22 20 16 19 37 31 36 33 28 34 32 36 34 40 41 51 57 53 40 46 41 41 35 32 38 33 31 38 35 29 34 37 34 35 46 54 56 37 38
46 17 16 22 25 25 33 35 36 44 41 44 46 37 35 26 41 37 45 49 59 62 59 54 53 53 48 34 43 47 46 47 29 28 36 41 38 28 23 25 24 24 36
31 26 10 13 15 20 19 18 27 41 45 43 32 40 48 36 37 42 46 52 54 40 51 46 40 38 36 32 31 36 37 39 41 41 29 15 25 33 42 50 57 46 43
13 13 10 3 5 7 10 13 22 17 25 38 47 30 41 42 38 36 51 52 50 46 49 44 42 49 41 48 48 37 32 36 37 21 23 30 39 41 47 54 53 56 44
23 13 6 1 3 6 9 7 1 5 14 15 32 37 26 34 32 32 38 38 45 42 43 48 43 48 54 39 37 43 43 42 30 30 30 36 38 37 36 42 52 39 44
23 14 12 8 12 15 16 18 15 7 1 13 13 25 30 19 34 34 19 32 40 40 37 35 44 43 46 46 40 51 48 45 43 41 41 42 40 44 41 44 44 53 52
20 10 14 21 20 20 20 21 18 17 14 12 11 5 13 18 21 24 21 18 19 26 33 44 34 38 41 41 39 39 41 40 42 43 44 42 38 40 43 43 46 49 59
29 25 15 21 19 19 21 18 19 19 16 18 7 5 12 9 7 9 4 6 9 8 15 26 32 37 34 33 38 42 45 45 47 46 47 48 46 45 48 49 46 50 49
29 29 25 22 19 12 10 8 9 8 13 7 8 2 2 6 9 9 13 19 14 18 10 13 21 29 38 45 44 49 51 49 49 50 50 55 58 56 53 52 50 49 50
21 17 10 13 6 6 7 5 6 7 6 5 8 11 14 20 25 26 28 34 40 44 49 50 46 38 35 45 52 56 59 61 61 63 66 67 66 63 55 52 57 60 57
17 18 17 13 7 10 4 3 4 6 11 12 15 17 25 26 26 31 34 34 38 42 45 48 50 53 52 54 63 68 71 71 70 66 68 71 70 69 65 64 63 65 65
3 9 1 5 2 2 9 13 8 14 14 16 20 23 27 28 32 38 41 42 45 48 51 52 53 54 56 55 58 63 70 77 83 86 87 85 80 81 79 83 85 82 77
17 16 8 14 16 12 12 15 14 18 21 23 27 31 34 38 42 45 48 51 55 57 58 59 60 62 63 65 64 65 69 71 72 77 82 87 85 84 82 86 81 73 71
16 13 15 7 13 14 16 18 20 25 27 31 37 41 44 48 53 57 56 54 53 55 56 58 61 61 62 62 63 65 68 71 74 74 74 72 76 88 91 89 86 90 88
19 10 11 13 11 14 17 25 25 27 33 39 43 46 51 52 53 56 59 62 63 65 65 67 67 67 67 66 65 67 73 77 80 80 80 77 70 73 72 75 87 90 87
10 6 13 18 20 19 18 23 28 32 36 45 50 51 56 58 57 59 61 62 62 59 58 60 63 67 68 66 73 80 85 87 88 92 97 98 96 91 86 81 76 78 86
11 7 10 12 15 24 27 28 31 40 45 49 52 55 56 58 58 58 57 57 58 61 66 70 68 67 70 76 83 88 92 96 99 102 104 105 102 98 92 97 91 76 72
21 16 15 18 24 28 32 37 40 43 48 53 55 56 57 58 58 61 63 63 65 69 77 81 84 85 93 102 101 95 99 103 104 104 105 104 107 106 106 104 104 97 94
17 19 25 27 31 33 39 44 42 46 49 53 57 57 56 59 58 58 66 75 82 91 98 100 98 99 102 103 99 82 73 71 76 76 77 76 80 87 89 92 90 98 114
22 28 32 35 38 43 45 41 41 46 49 53 54 53 53 58 69 82 90 87 78 85 91 98 94 87 82 74 67 63 61 74 81 80 80 77 79 72 66 67 73 91 93
28 33 39 42 39 33 38 40 43 46 47 49 52 57 68 81 76 71 75 84 89 77 68 71 70 69 66 62 57 54 58 67 73 74 71 67 66 63 55 52 66 81 85
33 37 42 42 43 45 44 42 41 46 51 55 64 75 80 70 75 84 75 63 64 65 67 68 67 64 61 56 54 50 47 46 51 58 61 62 61 62 61 64 64 50 52
43 42 45 48 45 44 42 41 41 53 63 73 77 74 76 84 66 61 63 61 59 62 66 64 66 63 58 57 56 52 49 53 58 55 55 53 59 56 59 57 51 45 52
43 42 41 42 42 42 42 44 52 66 78 79 81 78 74 67 63 58 54 57 59 62 64 62 61 59 56 59 60 57 54 48 43 48 52 57 55 47 48 44 47 42 36
37 38 39 42 44 47 48 51 59 67 74 75 74 68 65 62 58 53 53 54 56 54 53 54 56 57 58 61 57 58 59 48 51 54 56 50 41 38 37 38 28 23 26
40 41 41 42 45 47 55 57 53 64 71 72 66 63 59 55 53 54 58 55 52 44 46 46 48 50 58 61 53 51 51 50 55 62 61 48 35 33 32 28 35 37 43
Wind_Direction_850mb
296 301 281 302 285 264 214 224 238 220 225 214 225 251 233 236 243 242 240 245 246 238 233 234 215 232 227 222 232 239 245 259 274 274 281 291 293 289 290 293 291 286 294
278 339 321 328 322 298 280 263 249 244 228 234 233 226 254 250 243 247 241 244 242 278 250 232 255 226 229 230 233 248 254 254 256 270 274 277 293 283 289 306 342 330 269
209 286 343 306 300 300 286 278 270 257 238 227 231 235 233 225 230 237 240 249 252 228 234 239 223 239 229 230 241 258 256 251 248 237 263 278 286 292 277 285 292 301 286
195 207 248 276 329 295 287 299 266 278 246 232 224 229 245 247 243 246 242 235 253 246 247 248 236 231 227 235 238 241 224 242 257 255 251 266 276 282 292 294 298 310 316
184 156 97 59 41 48 43 355 192 223 206 227 234 235 253 246 249 269 254 236 230 235 233 239 242 243 231 226 229 229 234 242 250 245 251 258 265 273 287 295 302 300 305
126 141 132 99 78 67 58 54 50 32 220 232 263 247 240 240 236 252 247 233 235 244 236 238 238 232 235 232 235 234 232 238 241 247 249 252 261 267 280 288 289 293 293
131 110 119 98 86 78 66 64 67 73 89 113 120 187 247 272 276 277 271 253 265 248 251 229 230 229 236 234 235 240 250 256 258 263 263 264 257 260 270 278 284 289 290
164 155 129 130 115 88 74 77 83 73 80 73 86 157 140 127 158 209 262 177 215 64 276 262 239 244 236 252 260 260 258 263 265 266 267 267 266 267 267 269 279 284 288
142 156 153 150 117 92 92 92 82 93 76 62 60 32 288 290 302 287 290 267 271 262 264 221 236 263 268 264 258 262 267 265 264 265 263 264 271 274 273 262 267 275 287
173 182 150 141 89 168 189 111 58 32 349 335 304 295 297 283 279 278 265 264 264 267 270 273 267 254 249 258 260 258 258 258 259 259 260 261 265 269 266 260 259 267 275
186 184 193 171 204 200 144 321 343 318 314 326 321 316 308 302 291 284 287 286 282 280 278 276 274 274 274 266 258 259 259 257 256 261 262 260 260 261 260 263 265 265 268
124 301 90 115 165 270 277 307 322 316 295 310 310 307 303 300 293 292 290 287 281 278 277 276 274 274 272 267 264 267 266 263 263 260 260 261 259 258 259 262 263 262 262
186 231 225 249 224 240 260 282 302 305 303 303 301 294 294 291 291 289 287 286 287 286 284 281 275 271 267 266 267 268 268 268 269 270 268 266 264 262 260 255 259 262 265
198 219 222 266 249 244 268 279 290 298 299 300 300 297 297 295 295 297 299 297 293 289 286 281 279 276 273 271 272 271 270 269 269 267 266 268 267 266 267 263 259 258 259
300 262 199 228 270 286 287 285 288 295 302 299 296 296 298 299 297 294 292 291 291 290 289 288 284 279 279 279 280 276 271 269 267 264 262 260 261 260 261 266 262 260 259
261 238 243 254 266 277 292 301 301 300 299 298 299 298 298 298 299 296 294 294 293 290 286 283 282 280 280 279 272 269 270 271 273 274 270 268 264 260 258 258 259 266 262
246 268 311 314 330 318 307 300 304 302 299 297 297 299 299 299 298 297 296 295 293 290 287 286 285 278 270 265 264 264 267 271 274 276 275 274 272 270 266 263 259 261 260
24 359 334 325 311 306 304 303 305 298 298 298 299 300 300 299 299 299 298 296 288 283 281 280 276 274 272 274 278 279 279 277 276 275 274 275 273 271 271 267 259 258 255
339 321 314 306 309 305 302 301 298 300 301 301 300 300 300 300 300 293 285 281 281 281 282 283 284 282 285 284 284 282 280 280 282 284 280 279 278 275 275 271 267 265 257
322 309 301 299 295 302 298 300 303 304 305 302 299 296 290 288 286 286 290 293 292 289 291 290 289 289 290 290 289 285 278 278 282 285 285 285 284 281 274 269 269 262 261
307 302 295 299 304 310 316 313 310 310 303 294 288 287 289 295 298 292 291 295 295 295 299 302 303 301 299 298 295 290 280 277 281 283 284 286 285 285 280 273 261 265 266
312 313 314 320 323 322 320 319 316 297 293 293 293 294 300 299 299 302 301 303 308 307 307 307 306 305 307 304 301 295 286 283 279 279 282 288 292 284 275 276 266 268 266
328 325 321 318 319 326 318 314 311 299 293 296 301 304 302 307 306 309 311 309 310 310 312 310 308 307 308 306 304 301 291 284 279 274 278 278 287 278 274 270 253 274 261
326 324 323 320 320 315 325 317 309 301 302 305 305 309 311 317 317 313 312 313 313 312 311 309 308 308 308 305 307 303 293 288 274 273 266 279 286 278 272 260 251 279 233
331 330 330 325 322 321 317 311 311 307 305 308 312 317 316 316 317 317 318 317 316 315 312 309 305 301 304 308 301 292 283 275 270 270 275 279 283 284 270 245 241 238 221
334 330 327 323 320 317 311 315 309 302 309 315 319 319 320 322 322 323 322 322 325 327 323 317 314 310 314 313 301 292 285 276 267 268 269 270 274 273 264 250 238 240 247